Gonzales, LA

10:05 AM CDT on August 23, 2017 (GMT -0500)
Gonzales

Weather History for KL38 - November, 2012

Change the Weather History Date:

Monday, November 5, 2012

  Actual Average (KBTR) Record (KBTR)
Temperature  
Mean Temperature 64 °F -  
Max Temperature 74 °F 71 °F 88 °F (1919)
Min Temperature 55 °F 47 °F 26 °F (1991)
Growing Degree Days 14 (Base 50)    
Moisture  
Dew Point 60 °F    
Average Humidity 88    
Maximum Humidity 100    
Minimum Humidity 67    
Precipitation  
Precipitation 0.61 in - - ()
Sea Level Pressure  
Sea Level Pressure 30.00 in    
Wind  
Wind Speed 2 mph ()    
Max Wind Speed 17 mph    
Max Gust Speed 30 mph    
Visibility 7.8 miles    
Events Fog , Rain , Thunderstorm    
Averages and records for this station are not official NWS values.
T = Trace of Precipitation, MM = Missing Value Source: Averaged Metar Reports

Daily Weather History Graph

Daily Weather History Graph

Search for Another Location

Airport or City:

Trip Planner

Search our weather history database for the weather conditions in past years. The results will help you decide how hot, cold, wet, or windy it might be!

Date:

Astronomy

Nov. 05, 2012 Rise Set
Actual Time 6:21 AM CST 5:12 PM CST
Civil Twilight 5:56 AM CST 5:37 PM CST
Nautical Twilight 5:27 AM CST 6:06 PM CST
Astronomical Twilight 4:59 AM CST 6:34 PM CST
Moon 10:50 PM CST (11/5) 11:40 AM CST (11/5)
Length of Visible Light 11h 41m
Length of Day
10h 51m
Waning Gibbous, 62% of the Moon is Illuminated
Nov 5
Waning Gibbous
Nov 6
Last Quarter
Nov 13
New
Nov 20
First Quarter
Nov 28
Full

Hourly Weather History & Observations

Time (CST) Temp. Dew Point Humidity Pressure Visibility Wind Dir Wind Speed Gust Speed Precip Events Conditions
12:15 AM 58.1 °F 58.1 °F 100% 30.08 in 10.0 mi Calm Calm - N/A   Overcast
12:35 AM 59.0 °F 59.0 °F 100% 30.07 in 0.2 mi Calm Calm - N/A Fog Fog
12:55 AM 59.0 °F 59.0 °F 100% 30.07 in 0.2 mi Calm Calm - N/A Fog Fog
1:15 AM 58.8 °F 58.6 °F 99% 30.06 in 3.0 mi Calm Calm - N/A   Mostly Cloudy
1:35 AM 58.1 °F 58.1 °F 100% 30.06 in 5.0 mi Calm Calm - N/A   Scattered Clouds
1:55 AM 57.2 °F 57.2 °F 100% 30.06 in 1.2 mi Calm Calm - N/A   Mostly Cloudy
2:15 AM 57.7 °F 57.7 °F 100% 30.05 in 3.0 mi Calm Calm - N/A   Scattered Clouds
2:35 AM 56.8 °F 56.8 °F 100% 30.05 in 5.0 mi Calm Calm - N/A   Clear
2:55 AM 57.2 °F 57.2 °F 100% 30.06 in 7.0 mi Calm Calm - N/A   Clear
3:15 AM 57.4 °F 57.4 °F 100% 30.06 in 7.0 mi Calm Calm - N/A   Clear
3:35 AM 57.2 °F 57.2 °F 100% 30.06 in 7.0 mi Calm Calm - N/A   Clear
3:55 AM 56.8 °F 56.8 °F 100% 30.06 in 7.0 mi Calm Calm - N/A   Clear
4:15 AM 57.0 °F 56.7 °F 99% 30.06 in 7.0 mi Calm Calm - N/A   Clear
4:35 AM 56.7 °F 56.5 °F 99% 30.06 in 7.0 mi Calm Calm - N/A   Clear
4:55 AM 56.1 °F 55.9 °F 99% 30.06 in 5.0 mi Calm Calm - N/A   Clear
5:15 AM 55.9 °F 55.9 °F 100% 30.06 in 5.0 mi Calm Calm - N/A   Clear
5:35 AM 56.3 °F 55.9 °F 99% 30.06 in 7.0 mi Calm Calm - N/A   Clear
5:55 AM 55.8 °F 55.6 °F 99% 30.07 in 7.0 mi Calm Calm - N/A   Clear
6:15 AM 55.4 °F 55.2 °F 99% 30.07 in 7.0 mi Calm Calm - N/A   Clear
6:35 AM 55.4 °F 55.0 °F 99% 30.06 in 5.0 mi Calm Calm - N/A   Clear
6:55 AM 55.8 °F 55.4 °F 99% 30.06 in 7.0 mi Calm Calm - N/A   Clear
7:15 AM 55.9 °F 55.4 °F 98% 30.06 in 5.0 mi North - - N/A   Clear
7:35 AM 57.2 °F 56.1 °F 96% 30.06 in 7.0 mi Calm Calm - N/A   Clear
7:55 AM 58.5 °F 57.2 °F 96% 30.06 in 7.0 mi Calm Calm - N/A   Clear
8:15 AM 60.3 °F 57.6 °F 91% 30.07 in 10.0 mi Calm Calm - N/A   Clear
8:35 AM 62.1 °F 57.7 °F 86% 30.07 in 10.0 mi SE 3.5 mph - N/A   Clear
8:55 AM 63.5 °F 58.3 °F 83% 30.07 in 10.0 mi SE 3.5 mph - N/A   Clear
9:15 AM 64.4 °F 58.6 °F 82% 30.07 in 10.0 mi SSE 5.8 mph - 0.01 in   Scattered Clouds
9:35 AM 65.3 °F 59.4 °F 81% 30.07 in 10.0 mi South 3.5 mph - 0.01 in   Overcast
9:55 AM 66.4 °F 59.5 °F 79% 30.06 in 10.0 mi SSE 5.8 mph - 0.01 in   Overcast
10:15 AM 67.3 °F 60.4 °F 79% 30.05 in 10.0 mi SSE 5.8 mph - N/A   Overcast
10:35 AM 68.4 °F 60.8 °F 77% 30.05 in 10.0 mi South 6.9 mph - N/A   Scattered Clouds
10:55 AM 69.4 °F 61.9 °F 77% 30.04 in 10.0 mi South 4.6 mph - N/A   Scattered Clouds
11:15 AM 70.5 °F 62.1 °F 74% 30.03 in 10.0 mi SSE 4.6 mph - N/A   Mostly Cloudy
11:35 AM 70.2 °F 62.2 °F 76% 30.03 in 10.0 mi SE 3.5 mph - N/A   Mostly Cloudy
11:55 AM 71.8 °F 62.4 °F 72% 30.01 in 10.0 mi South 6.9 mph - N/A   Overcast
12:15 PM 72.1 °F 62.2 °F 71% 30.00 in 10.0 mi South 9.2 mph - N/A   Overcast
12:35 PM 73.9 °F 63.1 °F 69% 29.98 in 10.0 mi South 8.1 mph - N/A   Mostly Cloudy
12:55 PM 74.5 °F 63.1 °F 68% 29.98 in 10.0 mi SW 8.1 mph - N/A   Mostly Cloudy
1:15 PM 74.5 °F 62.8 °F 67% 29.96 in 10.0 mi SSW 3.5 mph - N/A   Mostly Cloudy
1:35 PM 73.8 °F 62.4 °F 68% 29.95 in 10.0 mi SSW 4.6 mph - N/A   Mostly Cloudy
1:55 PM 73.4 °F 62.4 °F 68% 29.95 in 10.0 mi WSW 5.8 mph - N/A   Overcast
2:15 PM 73.6 °F 62.8 °F 69% 29.94 in 10.0 mi SSW 5.8 mph - N/A   Mostly Cloudy
2:35 PM 73.4 °F 63.1 °F 70% 29.93 in 10.0 mi WSW 4.6 mph - N/A   Mostly Cloudy
2:55 PM 72.9 °F 63.0 °F 71% 29.94 in 10.0 mi West 4.6 mph - N/A   Overcast
3:15 PM 74.1 °F 63.3 °F 69% 29.94 in 10.0 mi WSW 6.9 mph - N/A   Mostly Cloudy
3:35 PM 72.7 °F 63.3 °F 72% 29.94 in 10.0 mi West 6.9 mph - N/A   Mostly Cloudy
3:55 PM 72.9 °F 63.3 °F 72% 29.93 in 10.0 mi WSW 4.6 mph - N/A   Scattered Clouds
4:15 PM 72.5 °F 63.5 °F 73% 29.93 in 10.0 mi Calm Calm - N/A   Scattered Clouds
4:35 PM 72.0 °F 63.7 °F 75% 29.92 in 10.0 mi Calm Calm - N/A   Clear
4:55 PM 71.8 °F 63.5 °F 75% 29.92 in 10.0 mi Calm Calm - N/A   Clear
5:15 PM 68.0 °F 64.6 °F 89% 29.91 in 10.0 mi Calm Calm - N/A   Scattered Clouds
5:35 PM 68.9 °F 65.3 °F 88% 29.91 in 10.0 mi Calm Calm - N/A   Mostly Cloudy
5:55 PM 67.6 °F 64.8 °F 90% 29.91 in 10.0 mi SSW 4.6 mph - N/A   Mostly Cloudy
6:15 PM 69.4 °F 64.2 °F 83% 29.93 in 10.0 mi NW 6.9 mph - N/A Rain , Thunderstorm Light Thunderstorms and Rain
6:35 PM 68.4 °F 64.9 °F 89% 29.95 in 5.0 mi SW 17.3 mph 29.9 mph 0.20 in Rain , Thunderstorm Heavy Thunderstorms and Rain
6:55 PM 63.3 °F 60.4 °F 90% 29.93 in 10.0 mi WSW 6.9 mph - 0.37 in Rain Light Rain
7:15 PM 64.4 °F 61.2 °F 89% 29.93 in 10.0 mi WSW 4.6 mph - N/A Thunderstorm Scattered Clouds
7:35 PM 64.4 °F 62.2 °F 93% 29.95 in 10.0 mi Calm Calm - N/A   Scattered Clouds
7:55 PM 64.8 °F 63.5 °F 96% 29.95 in 7.0 mi North 9.2 mph - 0.04 in Rain , Thunderstorm Heavy Thunderstorms and Rain
8:15 PM 64.9 °F 64.2 °F 98% 29.96 in 5.0 mi Calm Calm - 0.18 in Rain Light Rain
8:35 PM 64.6 °F 63.9 °F 98% 29.96 in 7.0 mi Calm Calm - 0.18 in   Overcast
8:55 PM 64.6 °F 64.4 °F 99% 29.96 in 7.0 mi West 4.6 mph - 0.18 in   Overcast
9:15 PM 64.6 °F 63.9 °F 98% 29.97 in 7.0 mi NW 3.5 mph - N/A   Overcast
9:35 PM 64.4 °F 62.6 °F 94% 29.97 in 10.0 mi Calm Calm - N/A   Overcast
9:55 PM 63.3 °F 62.1 °F 96% 29.96 in 7.0 mi NNW 3.5 mph - N/A   Overcast
10:15 PM 62.1 °F 61.7 °F 99% 29.96 in 5.0 mi NNW 3.5 mph - 0.01 in   Scattered Clouds
10:35 PM 61.7 °F 61.2 °F 98% 29.96 in 7.0 mi Calm Calm - 0.01 in   Clear
10:55 PM 60.3 °F 59.9 °F 99% 29.96 in 5.0 mi NNW 3.5 mph - 0.01 in   Clear
11:15 PM 61.0 °F 60.6 °F 99% 29.97 in 7.0 mi North 4.6 mph - N/A   Scattered Clouds
11:35 PM 61.3 °F 59.9 °F 95% 29.97 in 7.0 mi North 4.6 mph - N/A   Overcast
11:55 PM 60.8 °F 59.9 °F 97% 29.96 in 7.0 mi North 3.5 mph - N/A   Mostly Cloudy